Location: Exeidioux
(45.6312°N, 1.6819°E)
Time: 16:57:32
(UTC+00:00)

Cosmos 1703 Rocket - Pass Details

Date: 03 March 2021
Orbit: 604 x 634 km, 82.5° (Epoch: 11 April)

Event Time Altitude Azimuth Distance (km) Brightness Sun altitude
Rises 18:47:46 0° 357° (N) 2,911 7.1 -12.1°
Reaches altitude 10° 18:50:07 10° 4° (N) 1,995 6.2 -12.5°
Maximum altitude 18:54:20 43° 76° (ENE) 875 3.9 -13.3°
Drops below altitude 10° 18:58:28 10° 148° (SSE) 1,962 5.8 -14.0°
Enters shadow 18:59:32 - 152° (SSE) 2,370 6.2 -14.2°
